Location: Fours
(44.3167°N, 6.7000°E)
Time: 08:13:32
(UTC+00:00)

Cosmos 2227 - Visible Passes

Search period start: 12 May 2025 00:00
Search period end: 22 May 2025 00:00
Orbit: 834 x 859 km, 71.0° (Epoch: 11 May)

Date Brightness Start Highest point End Pass type
(mag) Time Alt. Az. Time Alt. Az. Time Alt. Az.
17 May 6.6 03:20:55 10° SE 03:24:58 20° E 03:29:01 10° NE visible
18 May 6.6 03:07:27 10° SE 03:11:25 20° E 03:15:24 10° NE visible
19 May 6.6 02:53:59 10° SE 02:57:53 19° E 03:01:48 10° NE visible
20 May 6.5 02:40:31 10° SE 02:44:21 19° E 02:48:11 10° ENE visible
21 May 6.5 02:27:03 10° SE 02:30:49 18° E 02:34:35 10° ENE visible
